Regional Weather Roundup
Issued by NWS

Home | Current Version | Previous Version | Graphics & Text | Print | Product List | Glossary On
Versions: 1 2 3 4 5 6 7 8 9 10 11 12 13 14 15 16 17 18 19 20 21 22 23 24 25 26 27 28 29 30 31 32 33 34 35 36 37 38 39 40 41 42 43 44 45 46 47 48 49 50
000
ASUS43 KIND 300109
RWRIN

WEATHER ROUNDUP FOR INDIANA
NATIONAL WEATHER SERVICE INDIANAPOLIS IN
900 PM EDT TUE JUL 29 2014

NOTE: "FAIR" INDICATES FEW OR NO CLOUDS BELOW 12,000 FEET WITH NO
SIGNIFICANT WEATHER AND/OR OBSTRUCTIONS TO VISIBILITY.

* - STATION DOES NOT REPORT WEATHER SUCH AS PRECIPITATION OR FOG.

+ - STATION NOT QUALITY CONTROLLED BY THE NATIONAL WEATHER SERVICE.
    USE DATA WITH CAUTION...ESPECIALLY DEWPOINT AND RELATIVE
    HUMIDITY OBSERVATIONS.

INZ001>003-010>013-019-020-300200-
NORTHWEST INDIANA

CITY           SKY/WX    TMP DP  RH WIND       PRES   REMARKS
GARY /AIRPORT/ MOCLDY    72  57  60 SW7       30.01S
KNOX *+        PTCLDY    65  59  79 W6        30.00S
LA PORTE +     PTCLDY    64  59  82 CALM      30.01S
MICHIGAN CITY+ CLEAR     64  55  72 CALM      30.00S
MONTICELLO +   PTCLDY    64  61  88 CALM      30.02R
RENSSELAER +   MOCLDY    64  61  88 W3        30.03S
VALPARAISO     PTCLDY    67  58  72 W6        30.02R

$$

LMZ046-743>745-300200-
SOUTHERN LAKE MICHIGAN

STATION/POSITION TIME  TEMP WIND        PRES
                       AIR  DIR/SP/G
                 (UTC) (F)  (DEG/KT/KT) (MB)
MICHIGAN CITY    0100   70  350/  1/  2   N/A

$$

INZ004-005-014>016-021>024-300200-
NORTH CENTRAL INDIANA

CITY           SKY/WX    TMP DP  RH WIND       PRES   REMARKS
ELKHART        CLEAR     66  54  63 CALM      30.01
GOSHEN         CLEAR     65  55  70 NW5       30.00R
LOGANSPORT +   PTCLDY    63  59  88 SW5       30.03S
PERU/GRISSOM   MOCLDY    64  64 100 W6        30.02S
ROCHESTER +    PTCLDY    70  59  68 W3        30.02S
SOUTH BEND     PTCLDY    68  54  60 W3        30.01R
WARSAW +       CLEAR     64  54  68 W5        30.01S

$$

INZ006>009-017-018-025>027-300200-
NORTHEAST INDIANA

CITY           SKY/WX    TMP DP  RH WIND       PRES   REMARKS
ANGOLA *+      CLEAR     66  57  72 NW3       30.00R
AUBURN +       CLEAR     64  57  77 CALM      30.00S
FORT WAYNE     PTCLDY    65  60  84 SW6       30.01S
HUNTINGTON +   PTCLDY    65  60  84 W6        30.01S

$$

INZ028-029-035-036-043>045-051>053-300200-
WEST CENTRAL INDIANA

CITY           SKY/WX    TMP DP  RH WIND       PRES   REMARKS
GREENCASTLE +  CLEAR     66  59  77 CALM      30.06R
LAFAYETTE      RAIN      64  62  93 N10       30.04R
TERRE HAUTE    CLEAR     69  57  65 W5        30.05R

$$

INZ030>032-037>040-046>048-054>057-064-065-300200-
CENTRAL INDIANA

CITY           SKY/WX    TMP DP  RH WIND       PRES   REMARKS
CP ATTERBURY + PTCLDY    68  59  73 N10G17    30.07R THUNDER
COLUMBUS       PTCLDY    68  61  77 CALM      30.05S
INDIANAPOLIS   LGT RAIN  62  59  90 W3        30.06R
-EAGLE CREEK   MOCLDY    63  60  90 SW3       30.05F
KOKOMO *+      PTCLDY    64  59  82 SW6       30.03S
MARION +       PTCLDY    61  58  90 SW3       30.04R
MT COMFORT *+  MOCLDY    63 N/A N/A W5        30.06S
SHELBYVILLE    LGT RAIN  65  61  87 W6        30.05R
ZIONSVILLE +   PTCLDY    63  58  85 CALM      30.06S

$$

INZ033-034-041-042-049-050-058-059-300200-
EAST CENTRAL INDIANA

CITY           SKY/WX    TMP DP  RH WIND       PRES   REMARKS
MUNCIE         PTCLDY    64  57  78 SW8       30.04R

$$

INZ060-061-067>069-081>083-085>088-300200-
SOUTHWEST INDIANA

CITY           SKY/WX    TMP DP  RH WIND       PRES   REMARKS
EVANSVILLE     CLEAR     73  56  54 CALM      30.06F
WASHINGTON +   CLEAR     66  62  87 W3        30.05S

$$

INZ062-063-066-070>080-084-089>092-300200-
SOUTH CENTRAL AND SOUTHEAST INDIANA

CITY           SKY/WX    TMP DP  RH WIND       PRES   REMARKS
BLOOMINGTON    PTCLDY    67  61  81 CALM      30.06R

$$




USA.gov is the U.S. government's official web portal to all federal, state and local government web resources and services.